Time,TemperatureF,DewpointF,PressureIn,WindDirection,WindDirectionDegrees,WindSpeedMPH,WindSpeedGustMPH,Humidity,HourlyPrecipIn,Conditions,Clouds,dailyrainin,SoftwareType,DateUTC
2013-04-06 00:00:00,44.5,22.8,30.04,NW,325,7.0,8.0,42,0.00,,,0.00,Wunderground v.1.15,2013-04-06 04:00:00,
2013-04-06 00:05:00,44.2,22.0,30.04,NNW,340,8.0,9.0,41,0.00,,,0.00,Wunderground v.1.15,2013-04-06 04:05:00,
2013-04-06 00:15:00,43.8,22.2,30.05,North,360,8.0,10.0,42,0.00,,,0.00,Wunderground v.1.15,2013-04-06 04:15:00,
2013-04-06 00:20:00,43.7,22.1,30.05,NW,316,8.0,9.0,42,0.00,,,0.00,Wunderground v.1.15,2013-04-06 04:20:00,
2013-04-06 00:30:00,43.4,21.8,30.05,North,351,8.0,8.0,42,0.00,,,0.00,Wunderground v.1.15,2013-04-06 04:30:00,
2013-04-06 00:35:00,43.2,22.2,30.05,WSW,237,7.0,8.0,43,0.00,,,0.00,Wunderground v.1.15,2013-04-06 04:35:00,
2013-04-06 00:40:00,43.1,22.1,30.06,North,355,7.0,7.0,43,0.00,,,0.00,Wunderground v.1.15,2013-04-06 04:40:00,
2013-04-06 00:45:00,42.9,21.9,30.06,North,349,6.0,7.0,43,0.00,,,0.00,Wunderground v.1.15,2013-04-06 04:45:00,
2013-04-06 00:50:00,42.9,21.9,30.06,NNW,338,6.0,6.0,43,0.00,,,0.00,Wunderground v.1.15,2013-04-06 04:50:00,
2013-04-06 01:00:00,42.5,22.1,30.07,NNW,335,4.0,8.0,44,0.00,,,0.00,Wunderground v.1.15,2013-04-06 05:00:00,
2013-04-06 01:05:00,42.4,22.0,30.07,NNW,344,5.0,8.0,44,0.00,,,0.00,Wunderground v.1.15,2013-04-06 05:05:00,
2013-04-06 01:15:00,42.2,21.8,30.08,North,360,5.0,6.0,44,0.00,,,0.00,Wunderground v.1.15,2013-04-06 05:15:00,
2013-04-06 01:20:00,42.1,22.3,30.08,NNW,333,6.0,6.0,45,0.00,,,0.00,Wunderground v.1.15,2013-04-06 05:20:00,
2013-04-06 01:25:00,42.0,22.2,30.08,NNW,343,7.0,11.0,45,0.00,,,0.00,Wunderground v.1.15,2013-04-06 05:25:00,
2013-04-06 01:30:00,42.0,22.2,30.08,North,360,9.0,11.0,45,0.00,,,0.00,Wunderground v.1.15,2013-04-06 05:30:00,
2013-04-06 01:35:00,41.9,22.1,30.09,NNE,25,10.0,11.0,45,0.00,,,0.00,Wunderground v.1.15,2013-04-06 05:35:00,
2013-04-06 01:40:00,41.8,22.0,30.09,NNW,333,10.0,10.0,45,0.00,,,0.00,Wunderground v.1.15,2013-04-06 05:40:00,
2013-04-06 01:45:00,41.6,21.8,30.09,NNW,346,7.0,13.0,45,0.00,,,0.00,Wunderground v.1.15,2013-04-06 05:45:00,
2013-04-06 01:50:00,41.5,22.2,30.09,NNW,336,7.0,7.0,46,0.00,,,0.00,Wunderground v.1.15,2013-04-06 05:50:00,
2013-04-06 01:55:00,41.3,22.1,30.09,NW,323,7.0,7.0,46,0.00,,,0.00,Wunderground v.1.15,2013-04-06 05:55:00,
2013-04-06 02:01:00,41.1,21.9,30.10,NW,315,7.0,7.0,46,0.00,,,0.00,Wunderground v.1.15,2013-04-06 06:01:00,
2013-04-06 02:10:00,40.9,21.7,30.10,NW,309,7.0,9.0,46,0.00,,,0.00,Wunderground v.1.15,2013-04-06 06:10:00,
2013-04-06 02:20:00,40.7,22.0,30.10,NNW,330,8.0,8.0,47,0.00,,,0.00,Wunderground v.1.15,2013-04-06 06:20:00,
2013-04-06 02:25:00,40.5,21.8,30.11,NW,319,6.0,8.0,47,0.00,,,0.00,Wunderground v.1.15,2013-04-06 06:25:00,
2013-04-06 02:30:00,40.4,21.7,30.11,NW,323,6.0,6.0,47,0.00,,,0.00,Wunderground v.1.15,2013-04-06 06:30:00,
2013-04-06 02:35:00,40.2,21.6,30.11,WNW,286,7.0,7.0,47,0.00,,,0.00,Wunderground v.1.15,2013-04-06 06:35:00,
2013-04-06 02:40:00,40.2,21.6,30.11,NNW,343,7.0,10.0,47,0.00,,,0.00,Wunderground v.1.15,2013-04-06 06:40:00,
2013-04-06 02:45:00,40.2,21.6,30.11,NNW,336,8.0,10.0,47,0.00,,,0.00,Wunderground v.1.15,2013-04-06 06:45:00,
2013-04-06 02:50:00,40.1,21.5,30.11,North,355,7.0,20.0,47,0.00,,,0.00,Wunderground v.1.15,2013-04-06 06:50:00,
2013-04-06 02:55:00,40.0,21.4,30.11,NNW,333,7.0,20.0,47,0.00,,,0.00,Wunderground v.1.15,2013-04-06 06:55:00,
2013-04-06 03:00:00,39.9,21.3,30.11,NW,307,8.0,8.0,47,0.00,,,0.00,Wunderground v.1.15,2013-04-06 07:00:00,
2013-04-06 03:05:00,39.8,21.2,30.11,NNE,14,8.0,8.0,47,0.00,,,0.00,Wunderground v.1.15,2013-04-06 07:05:00,
2013-04-06 03:10:00,39.6,21.5,30.11,WSW,252,6.0,6.0,48,0.00,,,0.00,Wunderground v.1.15,2013-04-06 07:10:00,
2013-04-06 03:15:00,39.5,21.4,30.12,NNW,338,5.0,16.0,48,0.00,,,0.00,Wunderground v.1.15,2013-04-06 07:15:00,
2013-04-06 03:25:00,39.3,21.7,30.12,NW,318,6.0,16.0,49,0.00,,,0.00,Wunderground v.1.15,2013-04-06 07:25:00,
2013-04-06 03:30:00,39.1,21.5,30.12,WNW,294,6.0,16.0,49,0.00,,,0.00,Wunderground v.1.15,2013-04-06 07:30:00,
2013-04-06 03:35:00,38.9,21.3,30.13,North,350,6.0,16.0,49,0.00,,,0.00,Wunderground v.1.15,2013-04-06 07:35:00,
2013-04-06 03:40:00,38.8,21.3,30.13,NNW,342,6.0,16.0,49,0.00,,,0.00,Wunderground v.1.15,2013-04-06 07:40:00,
2013-04-06 03:50:00,38.7,21.6,30.13,WNW,302,5.0,16.0,50,0.00,,,0.00,Wunderground v.1.15,2013-04-06 07:50:00,
2013-04-06 03:55:00,38.6,21.1,30.13,WNW,282,5.0,16.0,49,0.00,,,0.00,Wunderground v.1.15,2013-04-06 07:55:00,
2013-04-06 04:00:00,38.5,21.0,30.14,NNE,17,6.0,6.0,49,0.00,,,0.00,Wunderground v.1.15,2013-04-06 08:00:00,
2013-04-06 04:10:00,38.3,20.3,30.14,North,355,5.0,5.0,48,0.00,,,0.00,Wunderground v.1.15,2013-04-06 08:10:00,
2013-04-06 04:15:00,38.3,19.8,30.14,NW,325,6.0,6.0,47,0.00,,,0.00,Wunderground v.1.15,2013-04-06 08:15:00,
2013-04-06 04:20:00,38.3,19.3,30.15,North,350,7.0,16.0,46,0.00,,,0.00,Wunderground v.1.15,2013-04-06 08:20:00,
2013-04-06 04:25:00,38.3,19.3,30.15,NNW,347,7.0,17.0,46,0.00,,,0.00,Wunderground v.1.15,2013-04-06 08:25:00,
2013-04-06 04:30:00,38.3,18.8,30.15,NNE,19,7.0,7.0,45,0.00,,,0.00,Wunderground v.1.15,2013-04-06 08:30:00,
2013-04-06 04:40:00,38.1,19.1,30.16,NNW,344,6.0,6.0,46,0.00,,,0.00,Wunderground v.1.15,2013-04-06 08:40:00,
2013-04-06 04:45:00,37.9,18.9,30.16,NNW,331,5.0,16.0,46,0.00,,,0.00,Wunderground v.1.15,2013-04-06 08:45:00,
2013-04-06 04:50:00,37.8,18.8,30.17,NNW,348,5.0,5.0,46,0.00,,,0.00,Wunderground v.1.15,2013-04-06 08:50:00,
2013-04-06 04:55:00,37.7,18.8,30.17,NNW,327,6.0,6.0,46,0.00,,,0.00,Wunderground v.1.15,2013-04-06 08:55:00,
2013-04-06 05:00:00,37.5,18.6,30.17,NW,325,5.0,5.0,46,0.00,,,0.00,Wunderground v.1.15,2013-04-06 09:00:00,
2013-04-06 05:05:00,37.4,18.5,30.17,North,351,4.0,16.0,46,0.00,,,0.00,Wunderground v.1.15,2013-04-06 09:05:00,
2013-04-06 05:15:00,37.1,18.7,30.18,NNW,345,4.0,16.0,47,0.00,,,0.00,Wunderground v.1.15,2013-04-06 09:15:00,
2013-04-06 05:20:00,37.1,18.7,30.18,NNW,348,6.0,16.0,47,0.00,,,0.00,Wunderground v.1.15,2013-04-06 09:20:00,
2013-04-06 05:25:00,37.1,18.7,30.19,North,11,6.0,16.0,47,0.00,,,0.00,Wunderground v.1.15,2013-04-06 09:25:00,
2013-04-06 05:35:00,37.0,18.6,30.19,North,355,6.0,16.0,47,0.00,,,0.00,Wunderground v.1.15,2013-04-06 09:35:00,
2013-04-06 05:40:00,36.9,19.0,30.20,NNW,336,6.0,6.0,48,0.00,,,0.00,Wunderground v.1.15,2013-04-06 09:40:00,
2013-04-06 05:45:00,36.8,18.9,30.20,NNW,329,5.0,16.0,48,0.00,,,0.00,Wunderground v.1.15,2013-04-06 09:45:00,
2013-04-06 05:50:00,36.7,19.3,30.20,North,355,5.0,16.0,49,0.00,,,0.00,Wunderground v.1.15,2013-04-06 09:50:00,
2013-04-06 05:55:00,36.7,19.3,30.20,NNW,329,5.0,16.0,49,0.00,,,0.00,Wunderground v.1.15,2013-04-06 09:55:00,
2013-04-06 06:00:00,36.7,19.3,30.20,WNW,300,6.0,16.0,49,0.00,,,0.00,Wunderground v.1.15,2013-04-06 10:00:00,
2013-04-06 06:10:00,36.6,19.7,30.21,NW,315,5.0,5.0,50,0.00,,,0.00,Wunderground v.1.15,2013-04-06 10:10:00,
2013-04-06 06:15:00,36.5,19.6,30.21,NNE,19,4.0,16.0,50,0.00,,,0.00,Wunderground v.1.15,2013-04-06 10:15:00,
2013-04-06 06:20:00,36.4,19.5,30.22,NNW,342,6.0,6.0,50,0.00,,,0.00,Wunderground v.1.15,2013-04-06 10:20:00,
2013-04-06 06:30:00,36.3,19.9,30.22,NNW,342,5.0,16.0,51,0.00,,,0.00,Wunderground v.1.15,2013-04-06 10:30:00,
2013-04-06 06:35:00,36.2,19.8,30.23,NNW,348,5.0,16.0,51,0.00,,,0.00,Wunderground v.1.15,2013-04-06 10:35:00,
2013-04-06 06:40:00,36.2,20.2,30.23,NNW,328,4.0,4.0,52,0.00,,,0.00,Wunderground v.1.15,2013-04-06 10:40:00,
2013-04-06 06:45:00,36.1,20.2,30.24,NNW,342,5.0,5.0,52,0.00,,,0.00,Wunderground v.1.15,2013-04-06 10:45:00,
2013-04-06 06:50:00,36.1,20.6,30.24,NW,323,5.0,5.0,53,0.00,,,0.00,Wunderground v.1.15,2013-04-06 10:50:00,
2013-04-06 06:55:00,36.0,20.5,30.25,NNW,340,5.0,16.0,53,0.00,,,0.00,Wunderground v.1.15,2013-04-06 10:55:00,
2013-04-06 07:00:00,36.0,20.5,30.25,North,355,5.0,5.0,53,0.00,,,0.00,Wunderground v.1.15,2013-04-06 11:00:00,
2013-04-06 07:05:00,36.0,20.5,30.26,NNW,344,5.0,16.0,53,0.00,,,0.00,Wunderground v.1.15,2013-04-06 11:05:00,
2013-04-06 07:15:00,36.2,21.1,30.26,North,355,5.0,16.0,54,0.00,,,0.00,Wunderground v.1.15,2013-04-06 11:15:00,
2013-04-06 07:20:00,36.3,20.8,30.26,NNW,348,6.0,6.0,53,0.00,,,0.00,Wunderground v.1.15,2013-04-06 11:20:00,
2013-04-06 07:25:00,36.4,21.3,30.26,North,5,5.0,16.0,54,0.00,,,0.00,Wunderground v.1.15,2013-04-06 11:25:00,
2013-04-06 07:35:00,36.9,21.8,30.26,NNW,339,5.0,16.0,54,0.00,,,0.00,Wunderground v.1.15,2013-04-06 11:35:00,
2013-04-06 07:40:00,37.1,21.5,30.27,NNW,337,5.0,5.0,53,0.00,,,0.00,Wunderground v.1.15,2013-04-06 11:40:00,
2013-04-06 07:50:00,37.7,22.1,30.27,WNW,302,5.0,16.0,53,0.00,,,0.00,Wunderground v.1.15,2013-04-06 11:50:00,
2013-04-06 07:55:00,37.9,22.3,30.27,North,5,4.0,16.0,53,0.00,,,0.00,Wunderground v.1.15,2013-04-06 11:55:00,
2013-04-06 08:00:00,38.2,22.6,30.28,North,349,5.0,16.0,53,0.00,,,0.00,Wunderground v.1.15,2013-04-06 12:00:00,
2013-04-06 08:05:00,38.4,22.3,30.28,NW,304,6.0,16.0,52,0.00,,,0.00,Wunderground v.1.15,2013-04-06 12:05:00,
2013-04-06 08:10:00,38.6,22.5,30.28,NNW,329,7.0,7.0,52,0.00,,,0.00,Wunderground v.1.15,2013-04-06 12:10:00,
2013-04-06 08:15:00,38.8,22.7,30.29,NNE,28,6.0,16.0,52,0.00,,,0.00,Wunderground v.1.15,2013-04-06 12:15:00,
2013-04-06 08:20:00,39.1,22.9,30.29,NNW,348,5.0,5.0,52,0.00,,,0.00,Wunderground v.1.15,2013-04-06 12:20:00,
2013-04-06 08:25:00,39.5,22.8,30.29,NW,318,6.0,6.0,51,0.00,,,0.00,Wunderground v.1.15,2013-04-06 12:25:00,
2013-04-06 08:30:00,39.7,23.0,30.30,NNW,344,6.0,6.0,51,0.00,,,0.00,Wunderground v.1.15,2013-04-06 12:30:00,
2013-04-06 08:35:00,40.0,23.3,30.30,NNE,30,5.0,16.0,51,0.00,,,0.00,Wunderground v.1.15,2013-04-06 12:35:00,
2013-04-06 08:45:00,40.4,23.2,30.30,NE,36,5.0,16.0,50,0.00,,,0.00,Wunderground v.1.15,2013-04-06 12:45:00,
2013-04-06 08:50:00,40.6,23.4,30.30,North,349,5.0,5.0,50,0.00,,,0.00,Wunderground v.1.15,2013-04-06 12:50:00,
2013-04-06 08:55:00,40.8,23.1,30.30,NNW,348,5.0,16.0,49,0.00,,,0.00,Wunderground v.1.15,2013-04-06 12:55:00,
2013-04-06 09:05:00,40.9,20.6,30.30,NNE,23,5.0,16.0,44,0.00,,,0.00,Wunderground v.1.15,2013-04-06 13:05:00,
2013-04-06 09:10:00,40.8,21.1,30.31,NW,311,6.0,16.0,45,0.00,,,0.00,Wunderground v.1.15,2013-04-06 13:10:00,
2013-04-06 09:15:00,41.3,21.0,30.31,NW,325,6.0,16.0,44,0.00,,,0.00,Wunderground v.1.15,2013-04-06 13:15:00,
2013-04-06 09:25:00,42.1,21.2,30.32,NNW,333,6.0,16.0,43,0.00,,,0.00,Wunderground v.1.15,2013-04-06 13:25:00,
2013-04-06 09:30:00,42.4,20.9,30.32,North,360,5.0,5.0,42,0.00,,,0.00,Wunderground v.1.15,2013-04-06 13:30:00,
2013-04-06 09:35:00,42.7,20.0,30.32,NNW,345,6.0,7.0,40,0.00,,,0.00,Wunderground v.1.15,2013-04-06 13:35:00,
2013-04-06 09:40:00,42.7,18.8,30.32,North,355,7.0,16.0,38,0.00,,,0.00,Wunderground v.1.15,2013-04-06 13:40:00,
2013-04-06 09:50:00,42.5,18.0,30.33,NW,313,7.0,16.0,37,0.00,,,0.00,Wunderground v.1.15,2013-04-06 13:50:00,
2013-04-06 09:55:00,42.9,17.1,30.33,NE,40,7.0,16.0,35,0.00,,,0.00,Wunderground v.1.15,2013-04-06 13:55:00,
2013-04-06 10:00:00,42.5,17.4,30.33,NNW,338,7.0,16.0,36,0.00,,,0.00,Wunderground v.1.15,2013-04-06 14:00:00,
2013-04-06 10:10:00,43.3,17.4,30.33,North,360,6.0,16.0,35,0.00,,,0.00,Wunderground v.1.15,2013-04-06 14:10:00,
2013-04-06 10:15:00,44.0,18.1,30.33,North,5,6.0,16.0,35,0.00,,,0.00,Wunderground v.1.15,2013-04-06 14:15:00,
2013-04-06 10:20:00,44.0,16.7,30.33,North,355,5.0,16.0,33,0.00,,,0.00,Wunderground v.1.15,2013-04-06 14:20:00,
2013-04-06 10:30:00,44.2,17.6,30.33,NNW,344,5.0,16.0,34,0.00,,,0.00,Wunderground v.1.15,2013-04-06 14:30:00,
2013-04-06 10:35:00,44.5,17.1,30.33,North,355,5.0,16.0,33,0.00,,,0.00,Wunderground v.1.15,2013-04-06 14:35:00,
2013-04-06 10:40:00,44.7,18.0,30.33,NNE,26,5.0,16.0,34,0.00,,,0.00,Wunderground v.1.15,2013-04-06 14:40:00,
2013-04-06 10:45:00,44.3,17.7,30.33,North,355,5.0,16.0,34,0.00,,,0.00,Wunderground v.1.15,2013-04-06 14:45:00,
2013-04-06 10:55:00,45.4,17.9,30.34,NNW,329,4.0,16.0,33,0.00,,,0.00,Wunderground v.1.15,2013-04-06 14:55:00,
2013-04-06 11:00:00,45.2,18.5,30.34,NNE,30,5.0,5.0,34,0.00,,,0.00,Wunderground v.1.15,2013-04-06 15:00:00,
2013-04-06 11:05:00,45.4,17.2,30.34,NNE,24,4.0,16.0,32,0.00,,,0.00,Wunderground v.1.15,2013-04-06 15:05:00,
2013-04-06 11:10:00,45.1,16.2,30.34,North,5,5.0,16.0,31,0.00,,,0.00,Wunderground v.1.15,2013-04-06 15:10:00,
2013-04-06 11:15:00,44.6,16.5,30.34,NNW,333,6.0,16.0,32,0.00,,,0.00,Wunderground v.1.15,2013-04-06 15:15:00,
2013-04-06 11:20:00,44.9,16.8,30.34,NNE,20,5.0,16.0,32,0.00,,,0.00,Wunderground v.1.15,2013-04-06 15:20:00,
2013-04-06 11:25:00,45.3,17.1,30.34,NW,319,4.0,16.0,32,0.00,,,0.00,Wunderground v.1.15,2013-04-06 15:25:00,
2013-04-06 11:30:00,46.5,17.4,30.34,NW,321,4.0,16.0,31,0.00,,,0.00,Wunderground v.1.15,2013-04-06 15:30:00,
2013-04-06 11:35:00,47.1,17.2,30.34,North,360,4.0,16.0,30,0.00,,,0.00,Wunderground v.1.15,2013-04-06 15:35:00,
2013-04-06 11:40:00,47.4,15.9,30.34,North,10,4.0,16.0,28,0.00,,,0.00,Wunderground v.1.15,2013-04-06 15:40:00,
2013-04-06 11:45:00,47.1,17.2,30.34,NNW,331,4.0,16.0,30,0.00,,,0.00,Wunderground v.1.15,2013-04-06 15:45:00,
2013-04-06 11:55:00,47.3,15.8,30.34,North,355,5.0,16.0,28,0.00,,,0.00,Wunderground v.1.15,2013-04-06 15:55:00,
2013-04-06 12:00:00,47.5,16.8,30.34,NE,38,5.0,5.0,29,0.00,,,0.00,Wunderground v.1.15,2013-04-06 16:00:00,
2013-04-06 12:10:00,46.8,15.4,30.34,NNE,32,5.0,5.0,28,0.00,,,0.00,Wunderground v.1.15,2013-04-06 16:10:00,
2013-04-06 12:15:00,47.1,17.2,30.34,West,277,3.0,16.0,30,0.00,,,0.00,Wunderground v.1.15,2013-04-06 16:15:00,
2013-04-06 12:20:00,48.2,15.7,30.34,NNW,348,3.0,16.0,27,0.00,,,0.00,Wunderground v.1.15,2013-04-06 16:20:00,
2013-04-06 12:25:00,48.4,15.0,30.34,North,355,4.0,16.0,26,0.00,,,0.00,Wunderground v.1.15,2013-04-06 16:25:00,
2013-04-06 12:30:00,47.6,15.2,30.34,NE,54,5.0,16.0,27,0.00,,,0.00,Wunderground v.1.15,2013-04-06 16:30:00,
2013-04-06 12:40:00,46.6,15.2,30.34,ENE,59,4.0,16.0,28,0.00,,,0.00,Wunderground v.1.15,2013-04-06 16:40:00,
2013-04-06 12:45:00,47.1,15.6,30.34,NNW,344,3.0,16.0,28,0.00,,,0.00,Wunderground v.1.15,2013-04-06 16:45:00,
2013-04-06 12:50:00,48.2,15.7,30.34,West,259,3.0,3.0,27,0.00,,,0.00,Wunderground v.1.15,2013-04-06 16:50:00,
2013-04-06 13:00:00,49.1,14.7,30.34,NE,55,3.0,16.0,25,0.00,,,0.00,Wunderground v.1.15,2013-04-06 17:00:00,
2013-04-06 13:05:00,48.4,15.0,30.34,NNE,27,5.0,16.0,26,0.00,,,0.00,Wunderground v.1.15,2013-04-06 17:05:00,
2013-04-06 13:10:00,48.3,15.0,30.34,North,5,4.0,4.0,26,0.00,,,0.00,Wunderground v.1.15,2013-04-06 17:10:00,
2013-04-06 13:20:00,50.4,14.9,30.33,NW,321,4.0,16.0,24,0.00,,,0.00,Wunderground v.1.15,2013-04-06 17:20:00,
2013-04-06 13:25:00,51.2,18.3,30.33,NW,324,5.0,16.0,27,0.00,,,0.00,Wunderground v.1.15,2013-04-06 17:25:00,
2013-04-06 13:30:00,50.8,16.2,30.33,North,9,4.0,16.0,25,0.00,,,0.00,Wunderground v.1.15,2013-04-06 17:30:00,
2013-04-06 13:35:00,49.7,16.2,30.33,ENE,74,3.0,16.0,26,0.00,,,0.00,Wunderground v.1.15,2013-04-06 17:35:00,
2013-04-06 13:40:00,49.6,15.2,30.33,North,10,4.0,4.0,25,0.00,,,0.00,Wunderground v.1.15,2013-04-06 17:40:00,
2013-04-06 13:45:00,50.4,14.9,30.33,WSW,239,4.0,7.0,24,0.00,,,0.00,Wunderground v.1.15,2013-04-06 17:45:00,
2013-04-06 13:50:00,50.7,18.7,30.33,NE,37,5.0,16.0,28,0.00,,,0.00,Wunderground v.1.15,2013-04-06 17:50:00,
2013-04-06 13:55:00,49.7,17.9,30.33,NE,49,5.0,16.0,28,0.00,,,0.00,Wunderground v.1.15,2013-04-06 17:55:00,
2013-04-06 14:00:00,50.0,18.1,30.33,North,5,3.0,16.0,28,0.00,,,0.00,Wunderground v.1.15,2013-04-06 18:00:00,
2013-04-06 14:05:00,50.0,18.1,30.33,NE,42,4.0,16.0,28,0.00,,,0.00,Wunderground v.1.15,2013-04-06 18:05:00,
2013-04-06 14:10:00,49.4,15.9,30.32,WNW,286,5.0,5.0,26,0.00,,,0.00,Wunderground v.1.15,2013-04-06 18:10:00,
2013-04-06 14:20:00,51.6,15.9,30.32,NNW,333,3.0,3.0,24,0.00,,,0.00,Wunderground v.1.15,2013-04-06 18:20:00,
2013-04-06 14:30:00,49.4,21.5,30.33,SE,142,4.0,16.0,33,0.00,,,0.00,Wunderground v.1.15,2013-04-06 18:30:00,
2013-04-06 14:35:00,48.0,22.3,30.33,SSE,150,5.0,16.0,36,0.00,,,0.00,Wunderground v.1.15,2013-04-06 18:35:00,
2013-04-06 14:45:00,46.9,20.6,30.33,SSE,167,5.0,16.0,35,0.00,,,0.00,Wunderground v.1.15,2013-04-06 18:45:00,
2013-04-06 14:50:00,47.2,20.9,30.33,SE,128,4.0,16.0,35,0.00,,,0.00,Wunderground v.1.15,2013-04-06 18:50:00,
2013-04-06 14:55:00,47.6,20.6,30.33,SE,134,4.0,16.0,34,0.00,,,0.00,Wunderground v.1.15,2013-04-06 18:55:00,
2013-04-06 15:00:00,47.8,20.8,30.33,SSW,206,4.0,16.0,34,0.00,,,0.00,Wunderground v.1.15,2013-04-06 19:00:00,
2013-04-06 15:10:00,47.6,21.9,30.33,SSE,154,5.0,16.0,36,0.00,,,0.00,Wunderground v.1.15,2013-04-06 19:10:00,
2013-04-06 15:25:00,47.2,24.1,30.33,SE,146,5.0,16.0,40,0.00,,,0.00,Wunderground v.1.15,2013-04-06 19:25:00,
2013-04-06 15:30:00,47.3,23.6,30.33,SSE,168,5.0,16.0,39,0.00,,,0.00,Wunderground v.1.15,2013-04-06 19:30:00,
2013-04-06 15:35:00,46.6,23.5,30.33,SW,215,5.0,16.0,40,0.00,,,0.00,Wunderground v.1.15,2013-04-06 19:35:00,
2013-04-06 15:40:00,46.8,22.5,30.32,SE,128,5.0,16.0,38,0.00,,,0.00,Wunderground v.1.15,2013-04-06 19:40:00,
2013-04-06 15:50:00,47.2,20.2,30.32,SSE,154,5.0,5.0,34,0.00,,,0.00,Wunderground v.1.15,2013-04-06 19:50:00,
2013-04-06 15:55:00,47.4,23.0,30.33,South,179,5.0,16.0,38,0.00,,,0.00,Wunderground v.1.15,2013-04-06 19:55:00,
2013-04-06 16:00:00,48.2,23.1,30.33,South,185,4.0,16.0,37,0.00,,,0.00,Wunderground v.1.15,2013-04-06 20:00:00,
2013-04-06 16:05:00,47.9,22.8,30.33,SW,232,4.0,16.0,37,0.00,,,0.00,Wunderground v.1.15,2013-04-06 20:05:00,
2013-04-06 16:10:00,47.6,24.4,30.33,SSE,153,5.0,16.0,40,0.00,,,0.00,Wunderground v.1.15,2013-04-06 20:10:00,
2013-04-06 16:15:00,47.3,24.2,30.33,SE,134,5.0,16.0,40,0.00,,,0.00,Wunderground v.1.15,2013-04-06 20:15:00,
2013-04-06 16:20:00,47.2,24.7,30.33,SSW,196,5.0,16.0,41,0.00,,,0.00,Wunderground v.1.15,2013-04-06 20:20:00,
2013-04-06 16:30:00,46.8,25.5,30.33,ESE,105,5.0,5.0,43,0.00,,,0.00,Wunderground v.1.15,2013-04-06 20:30:00,
2013-04-06 16:35:00,46.3,26.1,30.33,South,173,6.0,6.0,45,0.00,,,0.00,Wunderground v.1.15,2013-04-06 20:35:00,
2013-04-06 16:40:00,46.2,26.0,30.33,South,190,6.0,6.0,45,0.00,,,0.00,Wunderground v.1.15,2013-04-06 20:40:00,
2013-04-06 16:50:00,46.0,25.8,30.33,SE,128,6.0,6.0,45,0.00,,,0.00,Wunderground v.1.15,2013-04-06 20:50:00,
2013-04-06 16:55:00,46.3,26.6,30.33,SSE,160,6.0,8.0,46,0.00,,,0.00,Wunderground v.1.15,2013-04-06 20:55:00,
2013-04-06 17:05:00,46.3,27.7,30.33,SSE,149,5.0,8.0,48,0.00,,,0.00,Wunderground v.1.15,2013-04-06 21:05:00,
2013-04-06 17:10:00,46.0,27.9,30.33,SW,225,4.0,16.0,49,0.00,,,0.00,Wunderground v.1.15,2013-04-06 21:10:00,
2013-04-06 17:15:00,45.9,28.3,30.34,SE,140,4.0,16.0,50,0.00,,,0.00,Wunderground v.1.15,2013-04-06 21:15:00,
2013-04-06 17:20:00,45.8,27.7,30.34,ESE,119,5.0,16.0,49,0.00,,,0.00,Wunderground v.1.15,2013-04-06 21:20:00,
2013-04-06 17:25:00,45.4,27.3,30.34,South,169,5.0,16.0,49,0.00,,,0.00,Wunderground v.1.15,2013-04-06 21:25:00,
2013-04-06 17:30:00,45.2,27.6,30.34,SE,140,5.0,5.0,50,0.00,,,0.00,Wunderground v.1.15,2013-04-06 21:30:00,
2013-04-06 17:35:00,45.1,28.0,30.34,SSE,150,4.0,16.0,51,0.00,,,0.00,Wunderground v.1.15,2013-04-06 21:35:00,
2013-04-06 17:40:00,45.0,27.5,30.34,SSE,165,5.0,16.0,50,0.00,,,0.00,Wunderground v.1.15,2013-04-06 21:40:00,
2013-04-06 17:45:00,44.6,27.6,30.34,SE,132,6.0,16.0,51,0.00,,,0.00,Wunderground v.1.15,2013-04-06 21:45:00,
2013-04-06 17:55:00,44.1,28.0,30.34,SE,145,6.0,16.0,53,0.00,,,0.00,Wunderground v.1.15,2013-04-06 21:55:00,
2013-04-06 18:00:00,44.1,27.6,30.34,SSW,208,5.0,5.0,52,0.00,,,0.00,Wunderground v.1.15,2013-04-06 22:00:00,
2013-04-06 18:05:00,44.1,28.0,30.34,South,186,4.0,16.0,53,0.00,,,0.00,Wunderground v.1.15,2013-04-06 22:05:00,
2013-04-06 18:10:00,44.1,28.0,30.34,SE,134,4.0,16.0,53,0.00,,,0.00,Wunderground v.1.15,2013-04-06 22:10:00,
2013-04-06 18:15:00,43.9,27.9,30.34,SE,128,4.0,16.0,53,0.00,,,0.00,Wunderground v.1.15,2013-04-06 22:15:00,
2013-04-06 18:20:00,43.8,27.8,30.34,SE,142,4.0,16.0,53,0.00,,,0.00,Wunderground v.1.15,2013-04-06 22:20:00,
2013-04-06 18:25:00,43.5,27.9,30.35,SSW,194,4.0,16.0,54,0.00,,,0.00,Wunderground v.1.15,2013-04-06 22:25:00,
2013-04-06 18:30:00,43.3,28.2,30.35,SSE,157,4.0,4.0,55,0.00,,,0.00,Wunderground v.1.15,2013-04-06 22:30:00,
2013-04-06 18:35:00,43.3,28.2,30.35,South,181,3.0,16.0,55,0.00,,,0.00,Wunderground v.1.15,2013-04-06 22:35:00,
2013-04-06 18:40:00,43.1,28.5,30.35,South,172,3.0,3.0,56,0.00,,,0.00,Wunderground v.1.15,2013-04-06 22:40:00,
2013-04-06 18:45:00,43.1,28.5,30.35,SSW,193,3.0,16.0,56,0.00,,,0.00,Wunderground v.1.15,2013-04-06 22:45:00,
2013-04-06 18:50:00,42.8,28.6,30.35,South,178,3.0,16.0,57,0.00,,,0.00,Wunderground v.1.15,2013-04-06 22:50:00,
2013-04-06 18:55:00,42.7,28.5,30.35,SSW,206,3.0,16.0,57,0.00,,,0.00,Wunderground v.1.15,2013-04-06 22:55:00,
2013-04-06 19:00:00,42.5,28.8,30.35,SE,143,2.0,16.0,58,0.00,,,0.00,Wunderground v.1.15,2013-04-06 23:00:00,
2013-04-06 19:05:00,42.4,28.2,30.35,SSW,201,2.0,16.0,57,0.00,,,0.00,Wunderground v.1.15,2013-04-06 23:05:00,
2013-04-06 19:15:00,42.1,27.9,30.35,SSE,165,2.0,16.0,57,0.00,,,0.00,Wunderground v.1.15,2013-04-06 23:15:00,
2013-04-06 19:20:00,41.9,28.6,30.35,South,174,2.0,2.0,59,0.00,,,0.00,Wunderground v.1.15,2013-04-06 23:20:00,
2013-04-06 19:25:00,41.8,28.5,30.35,WSW,238,2.0,16.0,59,0.00,,,0.00,Wunderground v.1.15,2013-04-06 23:25:00,
2013-04-06 19:30:00,41.6,28.7,30.35,SSE,167,2.0,16.0,60,0.00,,,0.00,Wunderground v.1.15,2013-04-06 23:30:00,
2013-04-06 19:35:00,41.4,28.5,30.35,SSE,154,1.0,16.0,60,0.00,,,0.00,Wunderground v.1.15,2013-04-06 23:35:00,
2013-04-06 19:40:00,41.2,28.8,30.35,SSW,202,1.0,16.0,61,0.00,,,0.00,Wunderground v.1.15,2013-04-06 23:40:00,
2013-04-06 19:45:00,41.1,29.1,30.35,South,191,2.0,16.0,62,0.00,,,0.00,Wunderground v.1.15,2013-04-06 23:45:00,
2013-04-06 19:50:00,41.0,29.0,30.35,SSE,159,2.0,2.0,62,0.00,,,0.00,Wunderground v.1.15,2013-04-06 23:50:00,
2013-04-06 20:00:00,40.6,29.0,30.35,South,175,2.0,2.0,63,0.00,,,0.00,Wunderground v.1.15,2013-04-07 00:00:00,
2013-04-06 20:05:00,40.5,28.9,30.35,South,180,2.0,3.0,63,0.00,,,0.00,Wunderground v.1.15,2013-04-07 00:05:00,
2013-04-06 20:15:00,40.5,28.9,30.36,South,169,2.0,16.0,63,0.00,,,0.00,Wunderground v.1.15,2013-04-07 00:15:00,
2013-04-06 20:20:00,40.4,28.8,30.36,SSW,207,2.0,2.0,63,0.00,,,0.00,Wunderground v.1.15,2013-04-07 00:20:00,
2013-04-06 20:25:00,40.2,29.0,30.36,SE,146,1.0,16.0,64,0.00,,,0.00,Wunderground v.1.15,2013-04-07 00:25:00,
2013-04-06 20:30:00,40.1,28.9,30.36,SSE,156,1.0,16.0,64,0.00,,,0.00,Wunderground v.1.15,2013-04-07 00:30:00,
2013-04-06 20:35:00,40.0,29.2,30.36,South,183,1.0,16.0,65,0.00,,,0.00,Wunderground v.1.15,2013-04-07 00:35:00,
2013-04-06 20:40:00,39.9,29.5,30.36,SSW,207,1.0,16.0,66,0.00,,,0.00,Wunderground v.1.15,2013-04-07 00:40:00,
2013-04-06 20:45:00,39.9,29.1,30.36,SSE,159,2.0,16.0,65,0.00,,,0.00,Wunderground v.1.15,2013-04-07 00:45:00,
2013-04-06 20:50:00,39.8,29.4,30.36,WSW,241,2.0,16.0,66,0.00,,,0.00,Wunderground v.1.15,2013-04-07 00:50:00,
2013-04-06 20:55:00,39.8,29.4,30.36,SSW,208,2.0,16.0,66,0.00,,,0.00,Wunderground v.1.15,2013-04-07 00:55:00,
2013-04-06 21:00:00,39.8,29.4,30.36,SSW,207,2.0,2.0,66,0.00,,,0.00,Wunderground v.1.15,2013-04-07 01:00:00,
2013-04-06 21:10:00,39.5,29.4,30.36,WSW,244,1.0,1.0,67,0.00,,,0.00,Wunderground v.1.15,2013-04-07 01:10:00,
2013-04-06 21:15:00,39.5,29.4,30.36,WSW,244,1.0,16.0,67,0.00,,,0.00,Wunderground v.1.15,2013-04-07 01:15:00,
2013-04-06 21:20:00,39.4,29.3,30.36,SW,222,1.0,1.0,67,0.00,,,0.00,Wunderground v.1.15,2013-04-07 01:20:00,
2013-04-06 21:25:00,39.5,29.8,30.37,SSE,163,1.0,16.0,68,0.00,,,0.00,Wunderground v.1.15,2013-04-07 01:25:00,
2013-04-06 21:30:00,39.4,29.7,30.36,SSE,163,1.0,1.0,68,0.00,,,0.00,Wunderground v.1.15,2013-04-07 01:30:00,
2013-04-06 21:35:00,39.3,29.6,30.37,SSW,201,1.0,16.0,68,0.00,,,0.00,Wunderground v.1.15,2013-04-07 01:35:00,
2013-04-06 21:40:00,39.2,29.5,30.37,SSW,205,1.0,16.0,68,0.00,,,0.00,Wunderground v.1.15,2013-04-07 01:40:00,
2013-04-06 21:50:00,39.1,29.8,30.36,SW,216,1.0,16.0,69,0.00,,,0.00,Wunderground v.1.15,2013-04-07 01:50:00,
2013-04-06 21:55:00,39.2,29.9,30.37,SW,215,1.0,16.0,69,0.00,,,0.00,Wunderground v.1.15,2013-04-07 01:55:00,
2013-04-06 22:05:00,38.9,29.6,30.36,SW,216,0.0,16.0,69,0.00,,,0.00,Wunderground v.1.15,2013-04-07 02:05:00,
2013-04-06 22:10:00,38.8,29.8,30.36,SW,216,0.0,16.0,70,0.00,,,0.00,Wunderground v.1.15,2013-04-07 02:10:00,
2013-04-06 22:15:00,38.7,29.8,30.36,SW,216,0.0,16.0,70,0.00,,,0.00,Wunderground v.1.15,2013-04-07 02:15:00,
2013-04-06 22:20:00,38.6,30.0,30.37,SW,216,0.0,16.0,71,0.00,,,0.00,Wunderground v.1.15,2013-04-07 02:20:00,
2013-04-06 22:25:00,38.4,29.8,30.36,SW,216,0.0,16.0,71,0.00,,,0.00,Wunderground v.1.15,2013-04-07 02:25:00,
2013-04-06 22:30:00,38.3,29.7,30.37,SW,216,0.0,16.0,71,0.00,,,0.00,Wunderground v.1.15,2013-04-07 02:30:00,
2013-04-06 22:35:00,38.1,29.9,30.37,SW,216,0.0,16.0,72,0.00,,,0.00,Wunderground v.1.15,2013-04-07 02:35:00,
2013-04-06 22:40:00,37.9,29.7,30.37,SW,216,0.0,16.0,72,0.00,,,0.00,Wunderground v.1.15,2013-04-07 02:40:00,
2013-04-06 22:45:00,37.7,29.8,30.37,SW,216,0.0,16.0,73,0.00,,,0.00,Wunderground v.1.15,2013-04-07 02:45:00,
2013-04-06 22:50:00,37.5,29.6,30.37,SW,216,0.0,16.0,73,0.00,,,0.00,Wunderground v.1.15,2013-04-07 02:50:00,
2013-04-06 23:00:00,37.3,29.8,30.37,SW,216,0.0,16.0,74,0.00,,,0.00,Wunderground v.1.15,2013-04-07 03:00:00,
2013-04-06 23:05:00,37.2,30.0,30.36,SW,216,0.0,16.0,75,0.00,,,0.00,Wunderground v.1.15,2013-04-07 03:05:00,
2013-04-06 23:10:00,37.1,29.9,30.37,SW,216,0.0,16.0,75,0.00,,,0.00,Wunderground v.1.15,2013-04-07 03:10:00,
2013-04-06 23:15:00,37.1,29.9,30.37,SW,216,0.0,16.0,75,0.00,,,0.00,Wunderground v.1.15,2013-04-07 03:15:00,
2013-04-06 23:25:00,37.0,30.1,30.36,SW,217,0.0,16.0,76,0.00,,,0.00,Wunderground v.1.15,2013-04-07 03:25:00,
2013-04-06 23:31:00,36.8,29.9,30.36,SW,217,0.0,16.0,76,0.00,,,0.00,Wunderground v.1.15,2013-04-07 03:31:00,
2013-04-06 23:40:00,36.6,30.1,30.36,SW,217,0.0,16.0,77,0.00,,,0.00,Wunderground v.1.15,2013-04-07 03:40:00,
2013-04-06 23:45:00,36.4,29.9,30.36,SW,217,0.0,16.0,77,0.00,,,0.00,Wunderground v.1.15,2013-04-07 03:45:00,
2013-04-06 23:50:00,36.1,29.6,30.36,SW,217,0.0,16.0,77,0.00,,,0.00,Wunderground v.1.15,2013-04-07 03:50:00,
2013-04-06 23:55:00,35.9,29.7,30.36,SW,217,0.0,16.0,78,0.00,,,0.00,Wunderground v.1.15,2013-04-07 03:55:00,